Location: Tel Aviv
(32.0670°N, 34.7670°E)
Time: 04:18:10
(UTC+03:00)

Vanguard 2 - Pass Details

Date: 29 January 2022
Orbit: 552 x 2935 km, 32.9° (Epoch: 25 May)

Event Time Altitude Azimuth Distance (km) Brightness Sun altitude
Rises 20:11:18 0° 267° (W) 3,818 12.0 -38.1°
Reaches altitude 10° 20:13:30 10° 267° (W) 3,094 11.3 -38.6°
Enters shadow 20:20:24 75° 281° (W) 1,651 9.0 -40.0°
Maximum altitude 20:21:30 86° 356° (N) 1,675 - -40.2°
Drops below altitude 10° 20:35:18 10° 87° (E) 5,082 - -43.2°
Sets 20:40:00 0° 88° (E) 6,373 - -44.2°
